Change the Weather History Date:

Monday, March 24, 2014

  Actual Average (KSZL) Record (KSZL)
Temperature  
Mean Temperature 34 °F -  
Max Temperature 44 °F 56 °F 80 °F (2003)
Min Temperature 23 °F 36 °F 25 °F (2008)
Degree Days  
Heating Degree Days 32    
Moisture  
Dew Point 24 °F    
Average Humidity 69    
Maximum Humidity 100    
Minimum Humidity 39    
Precipitation  
Precipitation 0.05 in - - ()
Sea Level Pressure  
Sea Level Pressure 30.26 in    
Wind  
Wind Speed 5 mph (NE)    
Max Wind Speed 12 mph    
Max Gust Speed 16 mph    
Visibility 8 miles    
Events Rain , Snow    
Averages and records for this station are not official NWS values.
T = Trace of Precipitation, MM = Missing Value Source: NWS Daily Summary

Daily Weather History Graph

Daily Weather History Graph

Search for Another Location

Airport or City:

Trip Planner

Search our weather history database for the weather conditions in past years. The results will help you decide how hot, cold, wet, or windy it might be!

Date:

Astronomy

Mar. 24, 2014 Rise Set
Actual Time 7:11 AM CDT 7:30 PM CDT
Civil Twilight 6:45 AM CDT 7:56 PM CDT
Nautical Twilight 6:14 AM CDT 8:28 PM CDT
Astronomical Twilight 5:43 AM CDT 8:59 PM CDT
Moon 2:38 AM CDT (3/24) 1:01 PM CDT (3/24)
Length of Visible Light 13h 11m
Length of Day
12h 18m
Last Quarter, 43% of the Moon is Illuminated
Mar 24
Last Quarter
Mar 30
New
Apr 7
First Quarter
Apr 15
Full
Apr 22
Last Quarter

Hourly Weather History & Observations

Time (CDT) Temp. Windchill Dew Point Humidity Pressure Visibility Wind Dir Wind Speed Gust Speed Precip Events Conditions
12:15 AM 26.6 °F 21.2 °F 14.0 °F 59% 30.34 in 10.0 mi NE 4.6 mph - N/A   Clear
12:35 AM 24.8 °F 19.1 °F 14.0 °F 64% 30.33 in 10.0 mi NE 4.6 mph - N/A   Clear
12:55 AM 24.8 °F - 15.8 °F 69% 30.33 in 10.0 mi Calm Calm - N/A   Clear
1:15 AM 23.0 °F - 15.8 °F 74% 30.32 in 10.0 mi Calm Calm - N/A   Clear
1:35 AM 26.6 °F - 14.0 °F 59% 30.30 in 10.0 mi Calm Calm - N/A   Clear
1:55 AM 26.6 °F 20.0 °F 14.0 °F 59% 30.30 in 10.0 mi ENE 5.8 mph - N/A   Clear
2:15 AM 28.4 °F 22.2 °F 14.0 °F 55% 30.30 in 10.0 mi ENE 5.8 mph - N/A   Clear
2:35 AM 26.6 °F 19.1 °F 14.0 °F 59% 30.31 in 10.0 mi NE 6.9 mph - N/A   Clear
2:55 AM 28.4 °F 20.4 °F 14.0 °F 55% 30.31 in 10.0 mi NE 8.1 mph - N/A   Clear
3:15 AM 28.4 °F 22.2 °F 14.0 °F 55% 30.31 in 10.0 mi NE 5.8 mph - N/A   Clear
3:35 AM 26.6 °F 21.2 °F 14.0 °F 59% 30.31 in 10.0 mi NE 4.6 mph - N/A   Clear
3:55 AM 26.6 °F 21.2 °F 14.0 °F 59% 30.30 in 10.0 mi ENE 4.6 mph - N/A   Clear
4:15 AM 24.8 °F 17.9 °F 15.8 °F 69% 30.30 in 10.0 mi East 5.8 mph - N/A   Clear
4:35 AM 26.6 °F 20.0 °F 15.8 °F 64% 30.29 in 10.0 mi East 5.8 mph - N/A   Clear
4:55 AM 26.6 °F 20.0 °F 15.8 °F 64% 30.29 in 10.0 mi ENE 5.8 mph - N/A   Partly Cloudy
5:15 AM 26.6 °F 22.6 °F 15.8 °F 64% 30.29 in 10.0 mi ENE 3.5 mph - N/A   Scattered Clouds
5:35 AM 26.6 °F 22.6 °F 17.6 °F 69% 30.29 in 10.0 mi NE 3.5 mph - N/A   Scattered Clouds
5:55 AM 26.6 °F 21.2 °F 17.6 °F 69% 30.29 in 10.0 mi NE 4.6 mph - N/A   Mostly Cloudy
6:15 AM 28.4 °F 23.3 °F 17.6 °F 64% 30.30 in 10.0 mi NE 4.6 mph - N/A   Overcast
6:35 AM 28.4 °F 23.3 °F 17.6 °F 64% 30.30 in 10.0 mi ENE 4.6 mph - N/A   Mostly Cloudy
6:55 AM 28.4 °F 22.2 °F 17.6 °F 64% 30.30 in 10.0 mi East 5.8 mph - N/A   Mostly Cloudy
7:15 AM 28.4 °F 21.2 °F 17.6 °F 64% 30.29 in 10.0 mi East 6.9 mph - N/A   Mostly Cloudy
7:35 AM 28.4 °F 23.3 °F 19.4 °F 69% 30.29 in 10.0 mi East 4.6 mph - N/A   Overcast
7:55 AM 30.2 °F 24.3 °F 19.4 °F 64% 30.29 in 10.0 mi East 5.8 mph - N/A   Mostly Cloudy
8:15 AM 30.2 °F 26.7 °F 19.4 °F 64% 30.29 in 10.0 mi East 3.5 mph - N/A   Mostly Cloudy
8:35 AM 32.0 °F 25.6 °F 19.4 °F 60% 30.30 in 10.0 mi East 6.9 mph - N/A   Mostly Cloudy
8:55 AM 32.0 °F 25.6 °F 19.4 °F 60% 30.29 in 10.0 mi ESE 6.9 mph - N/A   Mostly Cloudy
9:15 AM 33.8 °F 25.3 °F 17.6 °F 52% 30.29 in 10.0 mi ESE 11.5 mph - N/A   Mostly Cloudy
9:35 AM 35.6 °F 28.0 °F 17.6 °F 48% 30.28 in 10.0 mi SE 10.4 mph - N/A   Mostly Cloudy
9:55 AM 35.6 °F 28.0 °F 17.6 °F 48% 30.29 in 10.0 mi SE 10.4 mph - N/A   Mostly Cloudy
10:15 AM 35.6 °F 28.6 °F 17.6 °F 48% 30.28 in 10.0 mi SE 9.2 mph 16.1 mph N/A   Mostly Cloudy
10:35 AM 37.4 °F 30.8 °F 17.6 °F 45% 30.27 in 10.0 mi SE 9.2 mph - N/A   Scattered Clouds
10:55 AM 39.2 °F 33.0 °F 17.6 °F 42% 30.27 in 10.0 mi SSE 9.2 mph - N/A   Partly Cloudy
11:15 AM 39.2 °F 34.2 °F 19.4 °F 45% 30.26 in 10.0 mi SSE 6.9 mph - N/A   Mostly Cloudy
11:35 AM 41.0 °F 37.1 °F 19.4 °F 42% 30.26 in 10.0 mi SSE 5.8 mph - N/A   Mostly Cloudy
11:55 AM 41.0 °F 39.0 °F 19.4 °F 42% 30.26 in 10.0 mi East 3.5 mph - N/A   Mostly Cloudy
12:15 PM 41.0 °F 38.0 °F 19.4 °F 42% 30.25 in 10.0 mi East 4.6 mph - N/A   Scattered Clouds
12:35 PM 42.8 °F 40.1 °F 19.4 °F 39% 30.25 in 10.0 mi ESE 4.6 mph - N/A   Partly Cloudy
12:55 PM 42.8 °F 39.3 °F 21.2 °F 42% 30.24 in 10.0 mi SE 5.8 mph - N/A   Mostly Cloudy
1:15 PM 44.6 °F 41.4 °F 21.2 °F 39% 30.23 in 10.0 mi East 5.8 mph - N/A   Scattered Clouds
1:35 PM 44.6 °F - 21.2 °F 39% 30.23 in 10.0 mi Calm Calm - N/A   Partly Cloudy
1:55 PM 44.6 °F - 21.2 °F 39% 30.22 in 10.0 mi Calm Calm - N/A   Mostly Cloudy
2:15 PM 44.6 °F - 21.2 °F 39% 30.20 in 10.0 mi Calm Calm - N/A   Scattered Clouds
2:35 PM 44.6 °F - 21.2 °F 39% 30.20 in 10.0 mi Calm Calm - N/A   Partly Cloudy
2:55 PM 44.6 °F 39.7 °F 26.6 °F 49% 30.19 in 9.0 mi West 9.2 mph - N/A   Light Drizzle
3:15 PM 42.8 °F 40.1 °F 28.4 °F 57% 30.19 in 10.0 mi North 4.6 mph - N/A   Mostly Cloudy
3:35 PM 42.8 °F 38.0 °F 28.4 °F 57% 30.19 in 10.0 mi NW 8.1 mph - N/A   Partly Cloudy
3:55 PM 42.8 °F - 28.4 °F 57% 30.19 in 10.0 mi Calm Calm - N/A   Partly Cloudy
4:15 PM 41.0 °F 34.7 °F 30.2 °F 65% 30.20 in 10.0 mi NNW 10.4 mph - N/A   Mostly Cloudy
4:35 PM 37.4 °F 31.4 °F 32.0 °F 81% 30.19 in 5.0 mi NNW 8.1 mph - N/A   Light Drizzle
4:55 PM 37.4 °F 30.8 °F 32.0 °F 81% 30.19 in 5.0 mi NNW 9.2 mph - N/A Rain Light Rain
5:15 PM 35.6 °F 29.9 °F 33.8 °F 93% 30.20 in 2.5 mi NNW 6.9 mph - N/A   Overcast
5:35 PM 35.6 °F 29.9 °F 33.8 °F 93% 30.20 in 2.0 mi North 6.9 mph - 0.02 in Snow Light Snow
5:55 PM 35.6 °F 31.7 °F 33.8 °F 93% 30.20 in 2.0 mi NNW 4.6 mph - 0.03 in Rain Light Rain
6:15 PM 35.6 °F 29.9 °F 33.8 °F 93% 30.21 in 1.8 mi NW 6.9 mph - N/A   Overcast
6:35 PM 35.6 °F 30.7 °F 35.6 °F 100% 30.21 in 2.0 mi NNW 5.8 mph - 0.01 in   Overcast
6:55 PM 33.8 °F - 33.8 °F 100% 30.21 in 2.0 mi Calm Calm - 0.02 in Rain Light Rain
7:15 PM 33.8 °F 30.8 °F 33.8 °F 100% 30.21 in 2.5 mi NW 3.5 mph - N/A   Light Drizzle
7:35 PM 33.8 °F 30.8 °F 33.8 °F 100% 30.22 in 5.0 mi NW 3.5 mph - N/A   Mostly Cloudy
7:55 PM 35.6 °F 32.8 °F 35.6 °F 100% 30.22 in 5.0 mi NW 3.5 mph - N/A   Overcast
8:15 PM 35.6 °F - 35.6 °F 100% 30.22 in 5.0 mi Calm Calm - N/A   Overcast
8:35 PM 35.6 °F 31.7 °F 35.6 °F 100% 30.23 in 6.0 mi WNW 4.6 mph - N/A   Overcast
8:55 PM 35.6 °F 31.7 °F 35.6 °F 100% 30.23 in 7.0 mi WNW 4.6 mph - N/A   Overcast
9:15 PM 35.6 °F 32.8 °F 35.6 °F 100% 30.23 in 7.0 mi WNW 3.5 mph - N/A   Overcast
9:35 PM 35.6 °F 32.8 °F 35.6 °F 100% 30.23 in 6.0 mi WNW 3.5 mph - N/A   Overcast
9:55 PM 35.6 °F - 35.6 °F 100% 30.23 in 5.0 mi Calm Calm - N/A   Overcast
10:15 PM 33.8 °F - 33.8 °F 100% 30.23 in 5.0 mi Calm Calm - N/A   Mostly Cloudy
10:35 PM 35.6 °F 31.7 °F 35.6 °F 100% 30.24 in 5.0 mi WNW 4.6 mph - N/A   Overcast
10:55 PM 33.8 °F 30.8 °F 33.8 °F 100% 30.24 in 4.0 mi NW 3.5 mph - N/A   Mostly Cloudy
11:15 PM 33.8 °F 28.6 °F 33.8 °F 100% 30.24 in 4.0 mi WNW 5.8 mph - N/A   Mostly Cloudy
11:35 PM 33.8 °F 28.6 °F 33.8 °F 100% 30.24 in 5.0 mi WNW 5.8 mph - N/A   Mostly Cloudy
11:55 PM 33.8 °F 27.7 °F 32.0 °F 93% 30.24 in 4.0 mi West 6.9 mph - N/A   Mostly Cloudy